Regional Weather Roundup
Issued by NWS Sioux Falls, SD

Home | Current Version | Previous Version | Graphics & Text | Print | Product List | Glossary Off
Versions: 1 2 3 4 5 6 7 8 9 10 11 12 13 14 15 16 17 18 19 20 21 22 23 24 25 26 27 28 29 30 31 32 33 34 35 36 37 38 39 40 41 42 43 44 45 46 47 48 49 50

000
ASUS43 KFSD 261410
RWRFSD

WEATHER ROUNDUP FOR SE SOUTH DAKOTA/SW MINNESOTA/NW IOWA
NATIONAL WEATHER SERVICE SIOUX FALLS SD
900 AM CDT FRI MAY 26 2017

NOTE: "FAIR" INDICATES FEW OR NO CLOUDS BELOW 12,000 FEET WITH NO
SIGNIFICANT WEATHER AND OR OBSTRUCTIONS TO VISIBILITY.


SDZ038>040-050-052>070-261500-
SOUTHEAST SOUTH DAKOTA

CITY           SKY/WX    TMP DP  RH WIND       PRES   REMARKS
BROOKINGS      MOSUNNY   57  49  74 NW12      29.77R
CHAMBERLAIN    SUNNY     60  45  59 W13       29.86R
HURON          SUNNY     59  46  62 NW16      29.80R
MADISON        FAIR      55  55 100 NW13      29.79R
MITCHELL       SUNNY     60  46  59 NW13      29.82R
SIOUX FALLS    CLOUDY    60  50  69 NW15      29.78R
WINNER         FAIR      58  44  60 NW15      29.88R
YANKTON          N/A     59  48  67 NW16G23   29.81R
$$

MNZ071-072-080-081-089-090-097-098-261500-
SOUTHWEST MINNESOTA

CITY           SKY/WX    TMP DP  RH WIND       PRES   REMARKS
FAIRMONT       CLOUDY    61  54  77 S9        29.75R
JACKSON        CLOUDY    63  54  72 SW5       29.75R
LUVERNE        MOSUNNY   59  46  63 NW12G20   29.78R
MARSHALL       CLOUDY    61  52  72 NW13      29.74R
MONTEVIDEO     SUNNY     63  52  67 NW9       29.73R
PIPESTONE      MOSUNNY   59  46  63 N16G22    29.76R
REDWOOD FALLS  CLOUDY    62  52  69 NW16      29.71R
TRACY          MOSUNNY   62  52  70 NW14G21   29.74R
WINDOM         PTSUNNY   64  54  68 W12       29.73R
WORTHINGTON    CLOUDY    63  53  70 NW13      29.76R
$$

IAZ001>003-012>014-020>022-031-032-NEZ013-014-SDZ071-261500-
NORTHWEST IOWA

CITY           SKY/WX    TMP DP  RH WIND       PRES   REMARKS
CHEROKEE       CLOUDY    62  57  82 CALM      29.75R
DENISON        CLOUDY    61  57  88 CALM      29.76R
ESTHERVILLE    CLOUDY    59  55  87 S8        29.74R
LE MARS        CLOUDY    63  54  72 NW12      29.78R
ORANGE CITY    CLOUDY    61  55  82 NW13G18   29.76R
SHELDON        PTSUNNY   63  54  72 NW12      29.74R
SIOUX CITY     PTSUNNY   62  51  67 NW23      29.76R
SPENCER        CLOUDY    63  56  78 SW3       29.75R
STORM LAKE     MOSUNNY   61  54  77 S6        29.75R
$$

ABBREVIATIONS USED IN REMARKS
   TC - TEMPERATURE IN CELSIUS
  WCI - WIND CHILL INDEX
   HX - HEAT INDEX
  VSB - VISIBILITY





USA.gov is the U.S. government's official web portal to all federal, state and local government web resources and services.